Location: Unspecified
(0.0000°N, 0.0000°E)
Time: 14:59:00
(UTC+00:00)

O/OREOS (USA 219) - Pass Details

Date: 14 December 2019
Orbit: 621 x 646 km, 72.0° (Epoch: 22 May)

Event Time Altitude Azimuth Distance (km) Brightness Sun altitude
Rises 19:28:35 0° 186° (S) 2,920 ? -21.5°
Reaches altitude 10° 19:30:53 10° 181° (S) 2,014 ? -22.0°
Enters shadow 19:34:46 49° 130° (SE) 821 ? -22.9°
